#timestamp,LO_Frequency,Hit 
1499565615.4,286047047.4,N
1499565635.3,286047046.1,N
1499565655.1,286047048.1,N
1499565656.0,286047048.1,N
1499565675.8,286047048.6,N
1499565695.7,286047046.4,N
1499565715.5,286047047.9,N
1499565735.3,286047048.9,N
1499565755.2,286047048.1,N
1499565775.9,286047049.8,N
1499565795.7,286047048.8,N
1499565815.6,286047045.0,N
1499565835.4,286047047.4,N
1499565855.2,286047042.9,N
1499565875.0,286047044.3,N
1499565875.9,286047044.3,N
1499565895.8,286047041.3,N
1499565915.6,286047044.1,N
1499565935.4,286047043.1,N
1499565955.3,286047043.5,N
1499565975.1,286047043.6,N
1499565976.0,286047043.6,N
1499565995.8,286047045.5,N
1499566015.7,286047046.0,N
1499566035.5,286047043.1,N
1499566055.3,286047043.6,N
1499566075.2,286047045.4,N
1499566095.9,286047045.3,N
1499566115.7,286047045.2,N
1499566135.6,286047044.6,N
1499566155.4,286047048.8,N
1499566175.2,286047048.5,N
1499566195.0,286047050.3,N
1499566195.9,286047050.3,N
1499566215.8,286047049.2,N
1499566235.6,286047049.0,N
1499566255.4,286047047.9,N
1499566275.3,286047051.9,N
1499566295.1,286047051.7,N
1499566315.8,286047049.4,N
1499566335.7,286047051.8,N
1499566355.5,286047050.0,N
1499566375.3,286047047.8,N
1499566395.2,286047048.0,N
1499566415.9,286047049.4,N
1499566435.7,286047049.8,N
1499566455.6,286047048.8,N
1499566475.4,286047050.8,N
1499566495.2,286047049.9,N
1499566515.0,286047048.1,N
1499566516.0,286047048.1,N
1499566535.8,286047052.3,N
1499566555.6,286047050.6,N
1499566575.4,286047051.3,N
1499566595.3,286047053.3,N
1499566615.1,286047055.6,N
1499566635.8,286047051.3,N
1499566655.7,286047051.2,N
1499566675.5,286047051.5,N
1499566695.3,286047055.6,N
1499566715.2,286047055.1,N
1499566735.9,286047053.3,N
1499566755.7,286047053.6,N
1499566775.6,286047052.2,N
1499566795.4,286047051.2,N
1499566815.2,286047051.2,N
1499566835.1,286047052.4,N
1499566836.0,286047052.4,N
1499566855.8,286047049.9,N
1499566875.6,286047050.1,N
1499566895.5,286047052.1,N
1499566915.3,286047052.3,N
1499566935.1,286047053.6,N
1499566955.8,286047055.4,N
1499566975.7,286047054.7,N
1499566995.5,286047050.9,N
1499567015.3,286047050.0,N
1499567035.2,286047051.4,N
1499567055.0,286047052.6,N
1499567055.9,286047052.6,N
1499567075.7,286047055.4,N
1499567095.6,286047053.5,N
1499567115.4,286047053.1,N
1499567135.2,286047052.3,N
1499567155.1,286047051.5,N
1499567156.0,286047051.5,N
1499567175.8,286047057.2,N
1499567195.6,286047054.6,N
1499567215.5,286047055.0,N
1499567235.3,286047054.3,N
1499567255.1,286047053.1,N
1499567275.9,286047052.7,N
1499567295.7,286047055.5,N
1499567315.5,286047053.4,N
1499567335.3,286047052.5,N
1499567355.2,286047053.0,N
1499567375.0,286047053.2,N
1499567375.9,286047053.2,N
1499567395.7,286047051.0,N
1499567415.6,286047054.0,N
1499567435.4,286047053.3,N
1499567455.2,286047050.9,N
1499567475.1,286047053.9,N
1499567476.0,286047053.9,N
1499567495.8,286047054.0,N
1499567515.6,286047051.1,N
1499567535.5,286047051.1,N
1499567555.3,286047051.7,N
1499567575.1,286047050.9,N
1499567595.9,286047051.4,N
1499567615.7,286047051.0,N
1499567635.5,286047053.5,N
1499567655.3,286047052.8,N
1499567675.2,286047050.9,N
1499567695.0,286047053.5,N
1499567695.9,286047053.5,N
1499567715.7,286047053.3,N
1499567735.6,286047053.7,N
1499567755.4,286047053.6,N
1499567775.2,286047051.3,N
1499567795.1,286047052.2,N
1499567796.0,286047052.2,N
1499567815.8,286047051.0,N
1499567835.6,286047052.1,N
1499567855.5,286047049.8,N
1499567875.3,286047048.2,N
1499567895.1,286047049.0,N
1499567915.9,286047048.3,N
1499567935.7,286047047.9,N
1499567955.5,286047049.1,N
1499567975.4,286047047.9,N
1499567995.2,286047049.7,N
1499568015.0,286047052.1,N
1499568015.9,286047052.1,N
1499568035.8,286047050.1,N
1499568055.6,286047047.7,N
1499568075.4,286047049.9,N
1499568095.2,286047052.2,N
1499568115.1,286047052.3,N
1499568116.0,286047052.3,N
1499568135.8,286047052.1,N
1499568155.6,286047052.2,N
1499568175.5,286047054.0,N
1499568195.3,286047053.9,N
1499568215.1,286047055.6,N
1499568235.9,286047054.7,N
1499568255.7,286047055.6,N
1499568275.5,286047052.5,N
1499568295.4,286047053.8,N
1499568315.2,286047051.0,N
1499568335.0,286047051.2,N
1499568335.9,286047051.2,N
1499568355.8,286047053.3,N
1499568375.6,286047053.9,N
1499568395.4,286047053.7,N
1499568415.3,286047053.8,N
1499568435.1,286047053.0,N
1499568436.0,286047053.0,N
1499568455.8,286047052.7,N
1499568475.7,286047052.9,N
1499568495.5,286047052.5,N
1499568515.3,286047055.4,N
1499568535.1,286047054.9,N
1499568555.9,286047052.8,N
1499568575.7,286047054.7,N
1499568595.5,286047053.1,N
1499568615.4,286047053.5,N
1499568635.2,286047053.2,N
1499568655.0,286047053.4,N
1499568655.9,286047053.4,N
1499568675.8,286047054.3,N
1499568695.6,286047055.3,N
1499568715.4,286047054.9,N
1499568735.3,286047055.2,N
1499568755.1,286047054.9,N
1499568756.0,286047054.9,N
1499568775.8,286047054.8,N
1499568795.7,286047054.2,N
1499568815.5,286047056.0,N
1499568835.3,286047057.2,N
1499568855.1,286047054.9,N
1499568875.9,286047056.8,N
1499568895.7,286047057.0,N
1499568915.5,286047056.3,N
1499568935.4,286047056.9,N
1499568955.2,286047058.4,N
1499568975.0,286047057.1,N
1499568975.9,286047057.1,N
1499568995.8,286047055.4,N
1499569015.6,286047055.4,N
1499569035.4,286047054.3,N
1499569055.3,286047058.3,N
1499569075.1,286047057.7,N
1499569076.0,286047057.7,N
1499569095.8,286047055.8,N
1499569115.7,286047055.9,N
1499569135.5,286047058.1,N
1499569155.3,286047056.1,N
1499569175.2,286047058.7,N
1499569195.9,286047057.6,N
